Location: Coupvray
(48.8929°N, 2.7967°E)
Time: 22:34:59
(UTC+00:00)

ISS - Visible Passes

Search period start: 29 July 2021 00:00
Search period end: 08 August 2021 00:00
Orbit: 419 x 421 km, 51.6° (Epoch: 29 July)

Date Brightness Start Highest point End Pass type
(mag) Time Alt. Az. Time Alt. Az. Time Alt. Az.
29 Jul -2.3 21:11:48 10° W 21:14:40 25° SW 21:15:56 20° S visible
30 Jul -2.8 20:24:18 10° WNW 20:27:28 37° SSW 20:30:18 12° SSE visible
31 Jul -1.2 21:15:23 10° WSW 21:16:25 11° SW 21:17:27 10° SSW visible
01 Aug -1.5 20:27:02 10° W 20:29:18 17° SW 20:31:34 10° S visible
